COSMOS 1275 DEB

Satellite information

Favourite Embed

Satellite Type and Status

DEBRISIN ORBIT

Key statistics

Satellite COSMOS 1275 DEB at a glance.

Uptime

16212

Days in orbit

Revolutions

≈ 14.0

Per day

Orbit

LEO

Low Earth Orbit

Inclination

82.7

Latest

Satellite identification and parameters

Extended collection of information and parameters for COSMOS 1275 DEB.

Object identification

Identified? True

Debris? True

Object name: COSMOS 1275 DEB

International designator: 1981-053EQ

Object number (NORAD): 13018

Object ID (CCSDS): 13018

Country: COMMONWEALTH OF INDEPENDENT STATES (CIS)

Current information (Y/N): Y

RCS size: SMALL

Orbital parameters

Period: 103.173 minutes

Inclination: 82.6757 deg

SMA: 7286.833 km

Apoapsis: 943.232 km

Periapsis: 874.164 km

RAAN: 192.5035 deg

Eccentricy: 0.00473927

Argument of periapsis: 252.8266 deg

Mean anomaly: 260.3606 deg

Mean motion: 13.95707886 rev/day

Mean motion (dot): 0.00001866 rev/day2

B* drag term: 0.0013465464 1/REarth

Two-line elements (TLE)

Creation date: Oct. 22, 2025, 5:40 p.m.

Reference frame: TEME

Reference center: EARTH

Epoch: Oct. 22, 2025, 4:29 a.m. UTC

TLE line 0: 0 COSMOS 1275 DEB

TLE line 1: 1 13018U 81053EQ 25295.18699880 .00001866 00000-0 13465-2 0 9994

TLE line 2: 2 13018 82.6757 192.5035 0047393 252.8266 260.3606 13.95707886212026

Live tracking on map

Real-time ground track for satellite COSMOS 1275 DEB.

In-orbit conjunctions

A list of the most updated potential collisions computed for object COSMOS 1275 DEB.

Target Orbit TCA Probability of collision Miss distance Type
SL-16 DEB LEO 2025-08-29 14:18:23 0.0001167923 294.0 (m) DEBRIS
FENGYUN 1C DEB SSO 2024-10-24 08:22:08 0.000324069 66.0 (m) DEBRIS
NIMBUS 7 SSO 2024-06-19 03:52:55 0.0009966641 108.0 (m) PAYLOAD

Associated space launch

Navigation satellite providing location information for the Tsiklon-B navigation system

COSMOS 1275 DEB was lifted into orbit during the mission ‘Kosmos-3M | Parus 27’, on board a Kosmos-3M space rocket.

The launch took place on June 4, 1981, 3:41 p.m. from 132/2.

For more information about the launch, click the button.

Launch to space Kosmos-3M | Parus 27
Kosmos-3M | Parus 27

Agency: N/A

Status: Launch Successful

Launch date: June 4, 1981, 3:41 p.m. UTC

Rocket: Kosmos-3M

Launch pad: 132/2

Location: Plesetsk Cosmodrome, Russian Federation

...

Latest news about this satellite

There are no fresh news available about this satellite. Check back as we update our databases every day.


Newsletter sign-up

Weekly statistics, charts and insights to help you stay on top of the space industry.